| time (UTC) | temp F | wind direction | speed MPH | gust MPH | rain 1hr in | rain 24hr in | rain mn in | humidity % | barometer mb |
| 20260906234552 | 81 | 37 | 5.0 | 9.0 | 0.00 | 0.01 | 0.01 | 71 | 1009.3 |
| 20260906233050 | 80 | 15 | 4.0 | 10.0 | 0.00 | 0.01 | 0.01 | 72 | 1009.5 |
| 20260906231548 | 80 | 27 | 5.0 | 9.0 | 0.00 | 0.01 | 0.01 | 73 | 1009.6 |
| 20260906230048 | 79 | 13 | 4.0 | 8.0 | 0.00 | 0.01 | 0.01 | 74 | 1009.8 |
| 20260906224546 | 79 | 346 | 6.0 | 10.0 | 0.00 | 0.01 | 0.01 | 74 | 1009.9 |
| 20260906223047 | 79 | 44 | 6.0 | 14.0 | 0.00 | 0.01 | 0.01 | 74 | 1010.1 |
| 20260906221545 | 81 | 31 | 11.0 | 16.0 | 0.00 | 0.01 | 0.01 | 68 | 1010.4 |
| 20260906220045 | 83 | 40 | 4.0 | 10.0 | 0.00 | 0.01 | 0.01 | 65 | 1010.6 |
| 20260906214544 | 85 | 346 | 7.0 | 18.0 | 0.00 | 0.04 | 0.01 | 60 | 1010.5 |
| 20260906213048 | 90 | 196 | 5.0 | 19.0 | 0.00 | 0.04 | 0.01 | 47 | 1010.0 |
| 20260906211543 | 92 | 71 | 2.0 | 9.0 | 0.00 | 0.04 | 0.01 | 46 | 1009.9 |
| 20260906210044 | 91 | 188 | 1.0 | 7.0 | 0.00 | 0.04 | 0.01 | 46 | 1009.9 |
| 20260906204554 | 90 | 18 | 5.0 | 8.0 | 0.01 | 0.13 | 0.01 | 46 | 1010.0 |
| 20260906203051 | 89 | 26 | 7.0 | 10.0 | 0.01 | 0.13 | 0.01 | 49 | 1010.1 |
| 20260906201541 | 88 | 26 | 4.0 | 8.0 | 0.01 | 0.13 | 0.01 | 52 | 1010.3 |
| 20260906200039 | 87 | 34 | 6.0 | 12.0 | 0.01 | 0.13 | 0.01 | 54 | 1010.5 |
| 20260906194538 | 91 | 54 | 7.0 | 14.0 | 0.00 | 0.17 | 0.00 | 47 | 1010.7 |
| 20260906193036 | 93 | 60 | 2.0 | 11.0 | 0.00 | 0.17 | 0.00 | 42 | 1010.7 |
| 20260906191536 | 93 | 207 | 5.0 | 12.0 | 0.00 | 0.17 | 0.00 | 42 | 1010.9 |
| 20260906190037 | 95 | 211 | 5.0 | 12.0 | 0.00 | 0.17 | 0.00 | 40 | 1011.0 |
| 20260906184534 | 95 | 186 | 4.0 | 10.0 | 0.00 | 0.17 | 0.00 | 45 | 1011.2 |
| 20260906183031 | 91 | 173 | 3.0 | 14.0 | 0.00 | 0.17 | 0.00 | 53 | 1011.4 |
| 20260906181539 | 90 | 174 | 5.0 | 7.0 | 0.00 | 0.17 | 0.00 | 52 | 1011.8 |
| 20260906180047 | 93 | 155 | 3.0 | 8.0 | 0.00 | 0.17 | 0.00 | 48 | 1012.0 |
| 20260906174534 | 93 | 238 | 6.0 | 14.0 | 0.00 | 0.17 | 0.00 | 48 | 1012.3 |
| 20260906173028 | 94 | 180 | 5.0 | 12.0 | 0.00 | 0.17 | 0.00 | 49 | 1012.4 |
| 20260906171521 | 93 | 179 | 3.0 | 10.0 | 0.00 | 0.17 | 0.00 | 48 | 1012.6 |
| 20260906170022 | 92 | 160 | 4.0 | 8.0 | 0.00 | 0.17 | 0.00 | 51 | 1012.7 |
| 20260906164520 | 92 | 211 | 4.0 | 9.0 | 0.00 | 0.17 | 0.00 | 52 | 1012.7 |
| 20260906163017 | 92 | 218 | 2.0 | 7.0 | 0.00 | 0.17 | 0.00 | 51 | 1012.7 |
| 20260906161523 | 90 | 223 | 4.0 | 8.0 | 0.00 | 0.17 | 0.00 | 54 | 1012.7 |
| 20260906160017 | 89 | 209 | 4.0 | 8.0 | 0.00 | 0.17 | 0.00 | 56 | 1012.7 |
| 20260906154508 | 88 | 211 | 4.0 | 8.0 | 0.00 | 0.17 | 0.00 | 59 | 1012.6 |
| 20260906153004 | 86 | 200 | 3.0 | 7.0 | 0.00 | 0.17 | 0.00 | 62 | 1012.5 |
| 20260906151501 | 86 | 202 | 1.0 | 4.0 | 0.00 | 0.17 | 0.00 | 64 | 1012.3 |
| 20260906150110 | 85 | 202 | 1.0 | 5.0 | 0.00 | 0.17 | 0.00 | 68 | 1012.5 |
| 20260906144553 | 83 | 202 | 1.0 | 4.0 | 0.00 | 0.17 | 0.00 | 71 | 1012.5 |
| 20260906143052 | 81 | 202 | 1.0 | 4.0 | 0.00 | 0.17 | 0.00 | 76 | 1012.5 |
| 20260906141549 | 77 | 202 | 1.0 | 4.0 | 0.00 | 0.17 | 0.00 | 83 | 1012.4 |
| 20260906140054 | 74 | 202 | 1.0 | 4.0 | 0.00 | 0.17 | 0.00 | 87 | 1012.4 |
| 20260906134544 | 72 | 202 | 1.0 | 4.0 | 0.00 | 0.17 | 0.00 | 88 | 1012.4 |
| 20260906133106 | 70 | 202 | 0.0 | 2.0 | 0.00 | 0.17 | 0.00 | 87 | 1012.3 |
| 20260906131539 | 69 | 202 | 1.0 | 2.0 | 0.00 | 0.17 | 0.00 | 87 | 1011.9 |
| 20260906130039 | 68 | 202 | 1.0 | 2.0 | 0.00 | 0.17 | 0.00 | 87 | 1011.8 |
| 20260906124538 | 68 | 202 | 0.0 | 0.0 | 0.00 | 0.17 | 0.00 | 87 | 1011.8 |
| 20260906123037 | 68 | 202 | 0.0 | 0.0 | 0.00 | 0.17 | 0.00 | 87 | 1011.5 |
| 20260906121537 | 68 | 202 | 0.0 | 0.0 | 0.00 | 0.17 | 0.00 | 87 | 1011.3 |
| 20260906120038 | 68 | 202 | 0.0 | 0.0 | 0.00 | 0.17 | 0.00 | 87 | 1011.2 |
| 20260906114544 | 69 | 202 | 0.0 | 1.0 | 0.00 | 0.17 | 0.00 | 87 | 1010.9 |
| 20260906113032 | 69 | 202 | 2.0 | 3.0 | 0.00 | 0.17 | 0.00 | 86 | 1010.6 |
| 20260906111530 | 69 | 202 | 0.0 | 2.0 | 0.00 | 0.17 | 0.00 | 86 | 1010.5 |
| 20260906110030 | 69 | 202 | 0.0 | 3.0 | 0.00 | 0.17 | 0.00 | 86 | 1010.5 |
| 20260906104529 | 70 | 202 | 1.0 | 3.0 | 0.00 | 0.17 | 0.00 | 86 | 1010.2 |
| 20260906103027 | 70 | 202 | 1.0 | 3.0 | 0.00 | 0.17 | 0.00 | 86 | 1010.1 |
| 20260906101527 | 70 | 203 | 0.0 | 3.0 | 0.00 | 0.17 | 0.00 | 86 | 1010.0 |
| 20260906100031 | 71 | 203 | 0.0 | 2.0 | 0.00 | 0.17 | 0.00 | 85 | 1010.1 |
| 20260906094526 | 71 | 203 | 1.0 | 2.0 | 0.00 | 0.17 | 0.00 | 85 | 1010.1 |
| 20260906093023 | 72 | 203 | 0.0 | 0.0 | 0.00 | 0.17 | 0.00 | 83 | 1010.1 |
| 20260906091523 | 73 | 203 | 1.0 | 3.0 | 0.00 | 0.17 | 0.00 | 83 | 1010.1 |
| 20260906090016 | 74 | 203 | 0.0 | 3.0 | 0.00 | 0.17 | 0.00 | 82 | 1010.2 |
| 20260906084510 | 76 | 203 | 0.0 | 2.0 | 0.00 | 0.17 | 0.00 | 80 | 1010.0 |
| 20260906083007 | 76 | 203 | 0.0 | 6.0 | 0.00 | 0.17 | 0.00 | 78 | 1010.2 |
| 20260906081505 | 76 | 194 | 2.0 | 4.0 | 0.00 | 0.17 | 0.00 | 77 | 1010.3 |
| 20260906080002 | 77 | 194 | 1.0 | 2.0 | 0.00 | 0.17 | 0.00 | 75 | 1010.6 |
| 20260906074600 | 77 | 194 | 2.0 | 4.0 | 0.00 | 0.17 | 0.00 | 74 | 1010.7 |
| 20260906073058 | 78 | 192 | 3.0 | 8.0 | 0.00 | 0.17 | 0.00 | 74 | 1010.9 |
| 20260906071600 | 78 | 180 | 4.0 | 7.0 | 0.00 | 0.17 | 0.00 | 74 | 1011.0 |
| 20260906070058 | 78 | 115 | 1.0 | 8.0 | 0.00 | 0.17 | 0.00 | 75 | 1011.0 |
| 20260906064554 | 78 | 235 | 1.0 | 5.0 | 0.00 | 0.17 | 0.00 | 74 | 1011.2 |
| 20260906063051 | 78 | 237 | 5.0 | 9.0 | 0.00 | 0.17 | 0.00 | 74 | 1011.4 |
| 20260906061551 | 78 | 200 | 1.0 | 4.0 | 0.00 | 0.17 | 0.00 | 75 | 1011.5 |
| 20260906060047 | 78 | 204 | 1.0 | 5.0 | 0.00 | 0.17 | 0.00 | 75 | 1011.5 |
| 20260906054558 | 78 | 205 | 1.0 | 5.0 | 0.00 | 0.17 | 0.00 | 75 | 1011.4 |
| 20260906053044 | 79 | 206 | 1.0 | 4.0 | 0.00 | 0.17 | 0.00 | 75 | 1011.2 |
| 20260906051602 | 79 | 202 | 0.0 | 5.0 | 0.00 | 0.17 | 0.00 | 75 | 1011.4 |
| 20260906050044 | 79 | 202 | 4.0 | 9.0 | 0.00 | 0.17 | 0.00 | 74 | 1011.2 |
| 20260906044548 | 77 | 196 | 2.0 | 8.0 | 0.00 | 0.17 | 0.17 | 78 | 1011.2 |
| 20260906043038 | 75 | 125 | 2.0 | 8.0 | 0.00 | 0.17 | 0.17 | 81 | 1011.4 |
| 20260906041536 | 73 | 275 | 2.0 | 8.0 | 0.00 | 0.17 | 0.17 | 85 | 1011.4 |
| 20260906040103 | 73 | 224 | 1.0 | 4.0 | 0.00 | 0.17 | 0.17 | 86 | 1011.1 |
| 20260906034534 | 73 | 224 | 0.0 | 1.0 | 0.00 | 0.17 | 0.17 | 86 | 1010.9 |
| 20260906033044 | 73 | 224 | 0.0 | 0.0 | 0.00 | 0.17 | 0.17 | 86 | 1010.8 |
| 20260906031530 | 74 | 224 | 0.0 | 0.0 | 0.00 | 0.17 | 0.17 | 86 | 1010.7 |
| 20260906030029 | 74 | 224 | 0.0 | 0.0 | 0.00 | 0.17 | 0.17 | 85 | 1010.5 |
| 20260906024527 | 75 | 224 | 0.0 | 0.0 | 0.00 | 0.17 | 0.17 | 85 | 1010.1 |
| 20260906023026 | 75 | 224 | 0.0 | 2.0 | 0.00 | 0.17 | 0.17 | 85 | 1009.9 |
| 20260906021525 | 76 | 224 | 0.0 | 1.0 | 0.00 | 0.17 | 0.17 | 85 | 1009.5 |
| 20260906020025 | 77 | 224 | 0.0 | 0.0 | 0.00 | 0.17 | 0.17 | 84 | 1009.3 |
| 20260906014528 | 78 | 224 | 0.0 | 0.0 | 0.00 | 0.17 | 0.17 | 84 | 1009.0 |
| 20260906013023 | 78 | 224 | 0.0 | 2.0 | 0.00 | 0.17 | 0.17 | 84 | 1008.8 |
| 20260906011524 | 79 | 224 | 0.0 | 0.0 | 0.00 | 0.17 | 0.17 | 83 | 1008.7 |
| 20260906010023 | 80 | 224 | 0.0 | 1.0 | 0.00 | 0.17 | 0.17 | 81 | 1008.6 |
| 20260906004526 | 82 | 224 | 0.0 | 4.0 | 0.00 | 0.17 | 0.17 | 79 | 1008.6 |
| 20260906003022 | 84 | 224 | 0.0 | 3.0 | 0.00 | 0.17 | 0.17 | 75 | 1008.6 |
| 20260906001524 | 86 | 224 | 0.0 | 0.0 | 0.00 | 0.17 | 0.17 | 74 | 1008.6 |
| 20260906000022 | 87 | 224 | 0.0 | 0.0 | 0.00 | 0.17 | 0.17 | 72 | 1008.6 |